• In Russia
  • List of Countries
  • For 7 days
  • Water Temperature
  • Satellite Maps
  • Weather Map
  • Weather Widgets
  • user-avatar
    Login

    Hourly Weather El Guna

    Today, 25 February, Sunday

    Time Temperature Precipitation Wind Pressure Humidity
    00:00 +18°C° 0 mm 2 mps 732 mmHg 32%
    01:00 +18°C° 0 mm 2 mps 732 mmHg 33%
    02:00 +17°C° 0 mm 2 mps 732 mmHg 33%
    03:00 +17°C° 0 mm 2 mps 732 mmHg 32%
    04:00 +16°C° 0 mm 2 mps 732 mmHg 32%
    05:00 +16°C° 0 mm 1 mps 732 mmHg 32%
    06:00 +19°C° 0 mm 1 mps 732 mmHg 28%
    07:00 +20°C° 0 mm 1 mps 732 mmHg 24%
    08:00 +22°C° 0 mm 1 mps 733 mmHg 20%
    09:00 +23°C° 0 mm 1 mps 733 mmHg 19%
    10:00 +25°C° 0 mm 1 mps 733 mmHg 17%
    11:00 +26°C° 0 mm 1 mps 733 mmHg 16%
    12:00 +27°C° 0 mm 2 mps 733 mmHg 15%
    13:00 +28°C° 0 mm 2 mps 732 mmHg 14%
    14:00 +29°C° 0 mm 3 mps 732 mmHg 13%
    15:00 +28°C° 0 mm 4 mps 732 mmHg 15%
    16:00 +28°C° 0 mm 4 mps 732 mmHg 16%
    17:00 +27°C° 0 mm 4 mps 732 mmHg 17%
    18:00 +26°C° 0 mm 4 mps 732 mmHg 20%
    19:00 +25°C° 0 mm 3 mps 732 mmHg 22%
    20:00 +25°C° 0 mm 2 mps 732 mmHg 25%
    21:00 +24°C° 0 mm 2 mps 731 mmHg 25%
    22:00 +23°C° 0 mm 2 mps 731 mmHg 26%
    23:00 +23°C° 0 mm 1 mps 731 mmHg 26%

    Tomorrow, 26 February, Monday

    Time Temperature Precipitation Wind Pressure Humidity
    00:00 +22°C° 0 mm 1 mps 731 mmHg 27%
    01:00 +22°C° 0 mm 1 mps 730 mmHg 28%
    02:00 +20°C° 0 mm 2 mps 730 mmHg 29%
    03:00 +21°C° 0 mm 1 mps 730 mmHg 29%
    04:00 +20°C° 0 mm 1 mps 730 mmHg 30%
    05:00 +20°C° 0 mm 1 mps 730 mmHg 30%
    06:00 +20°C° 0 mm 2 mps 730 mmHg 28%
    07:00 +21°C° 0 mm 2 mps 731 mmHg 26%
    08:00 +24°C° 0 mm 3 mps 731 mmHg 24%
    09:00 +25°C° 0 mm 3 mps 731 mmHg 22%
    10:00 +26°C° 0 mm 4 mps 731 mmHg 19%
    11:00 +27°C° 0 mm 5 mps 731 mmHg 17%
    12:00 +28°C° 0 mm 5 mps 731 mmHg 17%
    13:00 +29°C° 0 mm 5 mps 730 mmHg 17%
    14:00 +29°C° 0 mm 6 mps 730 mmHg 17%
    15:00 +28°C° 0 mm 5 mps 729 mmHg 18%
    16:00 +28°C° 0 mm 5 mps 729 mmHg 20%
    17:00 +27°C° 0 mm 4 mps 729 mmHg 21%
    18:00 +26°C° 0 mm 4 mps 730 mmHg 23%
    19:00 +25°C° 0 mm 3 mps 730 mmHg 26%
    20:00 +23°C° 0 mm 2 mps 731 mmHg 29%
    21:00 +23°C° 0 mm 2 mps 731 mmHg 30%
    22:00 +21°C° 0 mm 2 mps 731 mmHg 31%
    23:00 +20°C° 0 mm 2 mps 731 mmHg 32%

    Day after tomorrow, 27 February, Tuesday

    Time Temperature Precipitation Wind Pressure Humidity
    00:00 +21°C° 0 mm 1 mps 731 mmHg 33%
    01:00 +20°C° 0 mm 1 mps 731 mmHg 34%
    02:00 +20°C° 0 mm 1 mps 731 mmHg 35%
    03:00 +20°C° 0 mm 1 mps 731 mmHg 36%
    04:00 +18°C° 0 mm 2 mps 731 mmHg 38%
    05:00 +18°C° 0 mm 2 mps 731 mmHg 39%
    06:00 +19°C° 0 mm 2 mps 731 mmHg 36%
    07:00 +20°C° 0 mm 2 mps 732 mmHg 34%
    08:00 +21°C° 0 mm 2 mps 732 mmHg 31%
    09:00 +23°C° 0 mm 2 mps 733 mmHg 28%
    10:00 +25°C° 0 mm 3 mps 733 mmHg 25%
    11:00 +26°C° 0 mm 4 mps 733 mmHg 22%
    12:00 +26°C° 0 mm 4 mps 733 mmHg 21%
    13:00 +27°C° 0 mm 5 mps 732 mmHg 20%
    14:00 +27°C° 0 mm 5 mps 732 mmHg 19%
    15:00 +27°C° 0 mm 5 mps 732 mmHg 20%
    16:00 +26°C° 0 mm 5 mps 732 mmHg 22%
    17:00 +25°C° 0 mm 5 mps 732 mmHg 24%
    18:00 +23°C° 0 mm 4 mps 732 mmHg 27%
    19:00 +22°C° 0 mm 3 mps 732 mmHg 31%
    20:00 +21°C° 0 mm 3 mps 733 mmHg 35%
    21:00 +20°C° 0 mm 3 mps 733 mmHg 37%
    22:00 +20°C° 0 mm 3 mps 733 mmHg 40%
    23:00 +19°C° 0 mm 2 mps 733 mmHg 42%

    28 February, Wednesday

    Time Temperature Precipitation Wind Pressure Humidity
    00:00 +19°C° 0 mm 2 mps 732 mmHg 44%
    01:00 +18°C° 0 mm 2 mps 732 mmHg 46%
    02:00 +18°C° 0 mm 2 mps 732 mmHg 48%
    03:00 +17°C° 0 mm 2 mps 732 mmHg 49%
    04:00 +17°C° 0 mm 3 mps 732 mmHg 49%
    05:00 +16°C° 0 mm 3 mps 732 mmHg 50%
    06:00 +17°C° 0 mm 3 mps 732 mmHg 47%
    07:00 +18°C° 0 mm 3 mps 733 mmHg 44%
    08:00 +19°C° 0 mm 3 mps 733 mmHg 40%
    09:00 +20°C° 0 mm 3 mps 733 mmHg 36%
    10:00 +21°C° 0 mm 3 mps 733 mmHg 31%
    11:00 +22°C° 0 mm 3 mps 733 mmHg 26%
    12:00 +24°C° 0 mm 3 mps 732 mmHg 24%
    13:00 +25°C° 0 mm 4 mps 732 mmHg 21%
    14:00 +26°C° 0 mm 4 mps 731 mmHg 19%
    15:00 +25°C° 0 mm 5 mps 731 mmHg 20%
    16:00 +25°C° 0 mm 5 mps 731 mmHg 21%
    17:00 +23°C° 0 mm 6 mps 730 mmHg 22%
    18:00 +22°C° 0 mm 5 mps 731 mmHg 25%
    19:00 +21°C° 0 mm 5 mps 731 mmHg 28%
    20:00 +20°C° 0 mm 4 mps 732 mmHg 32%
    21:00 +19°C° 0 mm 5 mps 732 mmHg 31%
    22:00 +19°C° 0 mm 5 mps 732 mmHg 31%
    23:00 +17°C° 0 mm 5 mps 732 mmHg 30%

    1 March, Thursday

    Time Temperature Precipitation Wind Pressure Humidity
    00:00 +17°C° 0 mm 5 mps 732 mmHg 31%
    01:00 +16°C° 0 mm 5 mps 731 mmHg 31%
    02:00 +16°C° 0 mm 5 mps 731 mmHg 32%
    03:00 +15°C° 0 mm 5 mps 731 mmHg 32%
    04:00 +15°C° 0 mm 5 mps 731 mmHg 33%
    05:00 +14°C° 0 mm 5 mps 731 mmHg 33%
    06:00 +15°C° 0 mm 5 mps 732 mmHg 31%
    07:00 +16°C° 0 mm 5 mps 732 mmHg 29%
    08:00 +17°C° 0 mm 5 mps 733 mmHg 26%
    09:00 +20°C° 0 mm 6 mps 733 mmHg 25%
    10:00 +21°C° 0 mm 6 mps 733 mmHg 24%
    11:00 +23°C° 0 mm 6 mps 733 mmHg 23%
    12:00 +24°C° 0 mm 6 mps 732 mmHg 22%
    13:00 +26°C° 0 mm 6 mps 732 mmHg 21%
    14:00 +27°C° 0 mm 6 mps 731 mmHg 20%
    15:00 +26°C° 0 mm 6 mps 731 mmHg 21%
    16:00 +26°C° 0 mm 6 mps 731 mmHg 22%
    17:00 +24°C° 0 mm 6 mps 731 mmHg 23%
    18:00 +23°C° 0 mm 5 mps 732 mmHg 25%
    19:00 +22°C° 0 mm 4 mps 732 mmHg 27%
    20:00 +21°C° 0 mm 3 mps 732 mmHg 29%
    21:00 +20°C° 0 mm 3 mps 732 mmHg 29%
    22:00 +20°C° 0 mm 3 mps 732 mmHg 29%
    23:00 +19°C° 0 mm 3 mps 732 mmHg 29%

    2 March, Friday

    Time Temperature Precipitation Wind Pressure Humidity
    00:00 +19°C° 0 mm 3 mps 732 mmHg 29%
    01:00 +18°C° 0 mm 3 mps 732 mmHg 30%
    02:00 +18°C° 0 mm 3 mps 732 mmHg 30%
    03:00 +18°C° 0 mm 3 mps 732 mmHg 31%
    04:00 +17°C° 0 mm 3 mps 732 mmHg 32%
    05:00 +17°C° 0 mm 2 mps 732 mmHg 33%
    06:00 +18°C° 0 mm 2 mps 732 mmHg 31%
    07:00 +19°C° 0 mm 2 mps 733 mmHg 30%
    08:00 +20°C° 0 mm 2 mps 733 mmHg 28%
    09:00 +23°C° 0 mm 2 mps 733 mmHg 27%
    10:00 +24°C° 0 mm 2 mps 733 mmHg 26%
    11:00 +25°C° 0 mm 2 mps 733 mmHg 24%
    12:00 +26°C° 0 mm 2 mps 732 mmHg 23%
    13:00 +27°C° 0 mm 2 mps 732 mmHg 22%
    14:00 +28°C° 0 mm 2 mps 731 mmHg 21%
    15:00 +27°C° 0 mm 2 mps 731 mmHg 23%
    16:00 +27°C° 0 mm 2 mps 731 mmHg 24%
    17:00 +26°C° 0 mm 2 mps 731 mmHg 26%
    18:00 +25°C° 0 mm 2 mps 731 mmHg 29%
    19:00 +24°C° 0 mm 1 mps 731 mmHg 33%
    20:00 +23°C° 0 mm 1 mps 732 mmHg 36%
    21:00 +22°C° 0 mm 1 mps 731 mmHg 37%
    22:00 +22°C° 0 mm 1 mps 731 mmHg 38%
    23:00 +19°C° 0 mm 0 mps 731 mmHg 39%
    Show more